TimeEST,TemperatureF,Dew PointF,Humidity,Sea Level PressureIn,VisibilityMPH,Wind Direction,Wind SpeedMPH,Gust SpeedMPH,PrecipitationIn,Events,Conditions,WindDirDegrees,DateUTC
12:53 AM,21.9,8.1,55,29.97,10.0,WNW,18.4,25.3,N/A,,Partly Cloudy,300,2013-12-16 05:53:00
1:53 AM,19.9,8.1,60,29.99,10.0,WNW,17.3,27.6,N/A,,Overcast,290,2013-12-16 06:53:00
2:53 AM,19.0,9.0,65,30.02,10.0,NW,11.5,-,N/A,,Overcast,320,2013-12-16 07:53:00
3:09 AM,19.0,9.0,65,29.95,10.0,WNW,13.8,21.9,N/A,,Overcast,300,2013-12-16 08:09:00
3:31 AM,19.0,10.0,68,29.96,10.0,WNW,13.8,-,N/A,,Overcast,300,2013-12-16 08:31:00
3:53 AM,19.0,10.0,68,30.03,10.0,NW,10.4,-,N/A,,Overcast,310,2013-12-16 08:53:00
4:53 AM,18.0,10.0,71,30.04,10.0,NW,15.0,-,N/A,,Overcast,310,2013-12-16 09:53:00
5:53 AM,18.0,10.0,71,30.06,10.0,NW,13.8,-,0.00,,Overcast,310,2013-12-16 10:53:00
6:53 AM,17.1,10.0,74,30.09,10.0,WNW,9.2,-,N/A,,Overcast,300,2013-12-16 11:53:00
7:53 AM,17.1,10.0,74,30.10,6.0,NW,4.6,-,0.00,,Haze,310,2013-12-16 12:53:00
8:29 AM,17.1,10.0,74,30.04,4.0,Calm,Calm,-,0.00,Snow,Light Snow,0,2013-12-16 13:29:00
8:43 AM,17.1,10.9,77,30.05,2.5,NW,3.5,-,0.00,Snow,Light Snow,310,2013-12-16 13:43:00
8:53 AM,17.1,10.9,77,30.12,2.5,NW,4.6,-,0.00,Snow,Light Snow,320,2013-12-16 13:53:00
9:12 AM,17.1,10.9,77,30.06,3.0,NW,4.6,-,0.00,Snow,Light Snow,310,2013-12-16 14:12:00
9:53 AM,18.0,10.9,74,30.15,4.0,Calm,Calm,-,0.00,Snow,Light Snow,0,2013-12-16 14:53:00
10:11 AM,18.0,12.0,78,30.09,4.0,Calm,Calm,-,0.00,Snow,Light Snow,0,2013-12-16 15:11:00
10:18 AM,18.0,12.0,78,30.09,4.0,West,4.6,-,0.00,Snow,Light Snow,270,2013-12-16 15:18:00
10:33 AM,19.0,12.0,74,30.09,5.0,West,5.8,-,0.00,,Haze,280,2013-12-16 15:33:00
10:53 AM,19.9,12.0,71,30.15,8.0,WNW,6.9,-,0.00,,Overcast,300,2013-12-16 15:53:00
11:53 AM,21.0,10.9,65,30.14,10.0,WNW,9.2,-,N/A,,Overcast,300,2013-12-16 16:53:00
12:53 PM,21.9,12.0,66,30.14,10.0,NW,6.9,-,N/A,,Overcast,310,2013-12-16 17:53:00
1:53 PM,23.0,12.0,63,30.12,10.0,WNW,3.5,-,N/A,,Overcast,300,2013-12-16 18:53:00
2:53 PM,23.0,12.9,65,30.13,10.0,NW,4.6,-,N/A,,Overcast,310,2013-12-16 19:53:00
3:53 PM,24.1,15.1,69,30.13,10.0,West,8.1,-,N/A,,Overcast,270,2013-12-16 20:53:00
4:53 PM,24.1,16.0,71,30.15,10.0,West,5.8,-,N/A,,Overcast,260,2013-12-16 21:53:00
5:50 PM,23.0,15.8,74,30.08,10.0,Calm,Calm,-,N/A,,Overcast,0,2013-12-16 22:50:00
5:53 PM,23.0,16.0,74,30.16,10.0,Calm,Calm,-,N/A,,Overcast,0,2013-12-16 22:53:00
6:53 PM,23.0,17.1,78,30.16,8.0,Calm,Calm,-,N/A,,Overcast,0,2013-12-16 23:53:00
7:42 PM,23.0,17.1,78,30.09,8.0,Calm,Calm,-,N/A,,Overcast,0,2013-12-17 00:42:00
7:53 PM,24.1,17.1,75,30.17,9.0,Calm,Calm,-,N/A,,Overcast,0,2013-12-17 00:53:00
8:06 PM,24.1,16.0,71,30.09,8.0,Calm,Calm,-,N/A,,Overcast,0,2013-12-17 01:06:00
8:53 PM,24.1,17.1,75,30.16,8.0,NNE,3.5,-,N/A,,Overcast,30,2013-12-17 01:53:00
9:40 PM,23.0,17.1,78,30.08,8.0,East,3.5,-,N/A,,Overcast,90,2013-12-17 02:40:00
9:53 PM,23.0,16.0,74,30.15,7.0,ENE,3.5,-,N/A,,Overcast,70,2013-12-17 02:53:00
10:53 PM,24.1,18.0,77,30.14,6.0,Calm,Calm,-,N/A,,Haze,0,2013-12-17 03:53:00
11:53 PM,24.1,19.9,84,30.13,7.0,South,4.6,-,N/A,,Overcast,170,2013-12-17 04:53:00